Location: LDNL
(36.4545°S, 141.6685°E)
Time: 14:35:27
(UTC+11:00)

Courier 1B Rocket - Pass Details

Date: 07 February 2023
Orbit: 920 x 1202 km, 28.2° (Epoch: 25 March)

Event Time Altitude Azimuth Distance (km) Brightness Sun altitude
Rises 04:02:26 0° 312° (NW) 3,910 - -29.0°
Reaches altitude 10° 04:05:30 10° 322° (NW) 2,998 - -28.6°
Maximum altitude 04:11:49 30° 20° (NNE) 1,952 - -27.8°
Exits shadow 04:12:19 30° 26° (NNE) 1,965 6.3 -27.8°
Drops below altitude 10° 04:18:22 10° 77° (ENE) 3,128 7.9 -27.0°
Sets 04:21:38 0° 87° (E) 4,106 8.8 -26.5°
